TDS 1 (40076 NORAD) Tracking and Keplerian Element Data

This shows tracking and keplerian element data for the satellite.

Feedback or suggestion? Click here.




ElementValue
Catalog40076
NameTDS 1
Epoch Orbit21760
Epoch Day198.85578041
Epoch Year2018
RAAN331.4459
Inclination98.3724
Eccentricity0.0004981
Argument of Perigee239.7735
Mean Anonmoly120.2985
Mean Motion14.81422881
Decay Rate1E-08
L11 40076U 14037H 18198.85578041 .00000001 00000-0 75143-5 0 9993
L22 40076 98.3724 331.4459 0004981 239.7735 120.2985 14.81422881217601

Live tracking and technical data element details for TDS 1 (NORAD 40076). TDS 1 can be tracked NOW for your location showing map with azimuth and elevation plus other details from your city location.

Track the satellite on the map from your city or location and see movement details for azimuth, elevation, latitude, longitude, range, height, and movement on the map or in text.







IsCatalogInMostPopularTable: catalog: 40076, numindb: 63
Update: records affected: 1



GetName: 40076 TDS 1

Hit Count: updated at: Thu, 19 Jul 2018 03:37:49 GMT